Showing default

PTD-4, 60565

Orbit data source: Space-Track

PTD-4, 60565 is an American payload satellite in SSO that was launched on Fri, 16 Aug 2024 UTC via an FALCON 9 launch vehicle from the Air Force Western Test Range (AFWTR). Payload-class satellites include a variety of spacecraft equipped with specific instruments for various scientific and technological missions. These include communications satellites like Starlink; space stations such as the ISS; scientific satellites like the Hubble; Earth observation satellites from companies like Planet Labs, Umbra, and HawkEye 360; GPS; miniature CubeSats for education and research; and military/defense satellites.

Loading next visibility...
Identifier
60565, 2024-149DB
Orbit
SSO
Country
Flag of USUS
Related business
Manufacturer
Terran Orbital
Mission
Operational Civil Technology
Bus & Motor
CUBESAT 6U, Unknown motor
Mass
~10 kg wet, ~10 kg dry
Launch date (UTC)
2024-08-16 (1 year ago)
Launch vehicle
FALCON 9
Launch site
Air Force Western Test Range (AFWTR)
Object type
Payload
Rocket body
Debris
Shape & HBR
Box + 2 Pan, 1.1 m
Radar Cross Section
0.189 m², Medium (>0.1 m² and < 1m²)

Expand to show TLE details & history
Last TLE update: 13 hours ago

TLE from 13 hours ago
0 PTD-4
1 60565U 24149DB  25289.20665284  .00018448  00000-0  11205-2 0  9997
2 60565  97.7163   9.2846 0004464 157.8353 202.3070 15.10536832 63845
Epoch: 2025-10-16T04:57Z
TLE epoch observation values (Epoch: 2025-10-16T04:57:34.805Z)
Latitude
-0.00001°
Longitude
-90.08012°
Altitude
540.486 km
Speed
7.591 km/s
True Right ascension
00h 37m 08s
True Declination
0° 00' 00"
Sunlit
Object was in full shadow at epoch
Visualization orbit readout
Latitude
Unknown
Longitude
Unknown
Altitude
Unknown
Speed
Unknown
Apparent Right ascension
Unknown
Apparent Declination
Unknown
Sunlit
N/A
Visualization observer readout
Local Sidereal Time
12:35:44
Azimuth
Unknown
Elevation
Unknown
Doppler factor
Unknown
Orbital elements
Apogee altitude
534.638 km
Perigee altitude
528.469 km
Semi-major axis
6,909.691 km
Eccentricity
0.00045
Inclination
97.7163°
RAAN
9.2846°
Arg. of periapsis
157.8353°
True anomaly
202.28759°
Mean anomaly
202.307°
Eccentric anomaly
202.2973°
Mean motion
3.77881 °/min
Orbital period
95.27 mins
BSTAR
0.0011205
Loading maneuver chart data...
Computing Atmospheric mass density...
Loading historical data...
Loading historical data...
Loading historical data...
Loading historical data...
Loading historical data...
Loading historical data...
Loading historical data...

Documentation

Showing up to 5 results
|